Perryton, TX

11:13 PM CDT on August 16, 2017 (GMT -0500)
Perryton Ochiltree County

Weather History for KPYX - October, 2013

Change the Weather History Date:

Wednesday, October 9, 2013

  Actual Average Record
Temperature  
Mean Temperature 65 °F -  
Max Temperature 83 °F 73 °F 91 °F (1975)
Min Temperature 48 °F 42 °F 21 °F (1970)
Growing Degree Days 15 (Base 50)    
Moisture  
Dew Point 40 °F    
Average Humidity 42    
Maximum Humidity 70    
Minimum Humidity 21    
Precipitation  
Precipitation 0.00 in - - ()
Sea Level Pressure  
Sea Level Pressure 29.92 in    
Wind  
Wind Speed 15 mph (SSE)    
Max Wind Speed 25 mph    
Max Gust Speed 33 mph    
Visibility 10 miles    
Events      
Averages and records for this station are not official NWS values.
T = Trace of Precipitation, MM = Missing Value Source: NWS Daily Summary

Daily Weather History Graph

Daily Weather History Graph

Search for Another Location

Airport or City:

Trip Planner

Search our weather history database for the weather conditions in past years. The results will help you decide how hot, cold, wet, or windy it might be!

Date:

Astronomy

Oct. 09, 2013 Rise Set
Actual Time 7:45 AM CDT 7:14 PM CDT
Civil Twilight 7:19 AM CDT 7:40 PM CDT
Nautical Twilight 6:49 AM CDT 8:10 PM CDT
Astronomical Twilight 6:19 AM CDT 8:40 PM CDT
Moon 12:35 PM CDT (10/9) 10:57 PM CDT (10/9)
Length of Visible Light 12h 21m
Length of Day
11h 29m
Waxing Crescent, 25% of the Moon is Illuminated
Oct 9
Waxing Crescent
Oct 11
First Quarter
Oct 18
Full
Oct 26
Last Quarter
Nov 3
New

Hourly Weather History & Observations

Time (CDT) Temp. Dew Point Humidity Pressure Visibility Wind Dir Wind Speed Gust Speed Precip Events Conditions
12:15 AM 62.2 °F 37.4 °F 40% 29.90 in 10.0 mi SSE 16.1 mph - N/A   Clear
12:35 AM 61.3 °F 37.6 °F 41% 29.90 in 10.0 mi SSE 13.8 mph - N/A   Clear
12:55 AM 60.8 °F 37.6 °F 42% 29.90 in 10.0 mi SSE 13.8 mph - N/A   Clear
1:15 AM 61.5 °F 37.8 °F 41% 29.90 in 10.0 mi South 16.1 mph - N/A   Clear
1:35 AM 61.2 °F 37.9 °F 42% 29.90 in 10.0 mi South 13.8 mph - N/A   Clear
1:55 AM 60.3 °F 38.1 °F 44% 29.90 in 10.0 mi SSE 13.8 mph - N/A   Clear
2:15 AM 59.5 °F 38.3 °F 45% 29.90 in 10.0 mi SSE 12.7 mph - N/A   Clear
2:35 AM 58.5 °F 38.7 °F 48% 29.90 in 10.0 mi SSE 13.8 mph - N/A   Clear
2:55 AM 57.2 °F 38.7 °F 50% 29.90 in 10.0 mi SSE 10.4 mph - N/A   Clear
3:15 AM 55.9 °F 38.7 °F 52% 29.90 in 10.0 mi SSE 11.5 mph - N/A   Clear
3:35 AM 55.9 °F 38.7 °F 52% 29.90 in 10.0 mi South 11.5 mph - N/A   Clear
3:55 AM 55.4 °F 39.2 °F 54% 29.90 in 10.0 mi SSE 11.5 mph - N/A   Clear
4:15 AM 55.4 °F 39.2 °F 54% 29.90 in 10.0 mi SSE 11.5 mph - N/A   Clear
4:35 AM 52.5 °F 39.2 °F 61% 29.90 in 10.0 mi SE 8.1 mph - N/A   Clear
4:55 AM 51.3 °F 39.4 °F 64% 29.91 in 10.0 mi SSE 6.9 mph - N/A   Clear
5:15 AM 50.0 °F 39.4 °F 67% 29.91 in 10.0 mi SSE 8.1 mph - N/A   Clear
5:35 AM 49.5 °F 39.0 °F 67% 29.91 in 10.0 mi SSE 9.2 mph - N/A   Clear
5:55 AM 48.4 °F 38.8 °F 70% 29.91 in 10.0 mi SSE 9.2 mph - N/A   Clear
6:15 AM 49.5 °F 39.6 °F 69% 29.91 in 10.0 mi SSE 10.4 mph - N/A   Clear
6:35 AM 50.0 °F 39.9 °F 68% 29.91 in 10.0 mi SSE 11.5 mph - N/A   Clear
6:55 AM 50.4 °F 40.1 °F 68% 29.91 in 10.0 mi SSE 11.5 mph - N/A   Clear
7:15 AM 50.9 °F 39.9 °F 66% 29.92 in 10.0 mi SSE 10.4 mph - N/A   Clear
7:35 AM 50.0 °F 40.1 °F 69% 29.92 in 10.0 mi SSE 6.9 mph - N/A   Clear
7:55 AM 49.8 °F 40.1 °F 69% 29.93 in 7.0 mi SSE 11.5 mph - N/A   Clear
8:15 AM 50.9 °F 40.3 °F 67% 29.93 in 7.0 mi SSE 10.4 mph - N/A   Clear
8:35 AM 53.6 °F 41.0 °F 62% 29.94 in 10.0 mi SSE 8.1 mph - N/A   Clear
8:55 AM 56.8 °F 41.2 °F 56% 29.94 in 7.0 mi South 11.5 mph - N/A   Clear
9:15 AM 60.1 °F 40.5 °F 48% 29.94 in 10.0 mi South 15.0 mph - N/A   Clear
9:35 AM 62.4 °F 40.8 °F 45% 29.96 in 10.0 mi South 15.0 mph - N/A   Clear
9:55 AM 64.4 °F 39.2 °F 40% 29.96 in 10.0 mi South 18.4 mph 23.0 mph N/A   Clear
10:15 AM 66.0 °F 39.0 °F 37% 29.96 in 10.0 mi South 19.6 mph - N/A   Clear
10:35 AM 68.0 °F 38.7 °F 34% 29.96 in 10.0 mi South 21.9 mph - N/A   Clear
10:55 AM 70.0 °F 38.5 °F 32% 29.96 in 10.0 mi South 21.9 mph 28.8 mph N/A   Clear
11:15 AM 70.9 °F 39.2 °F 32% 29.96 in 10.0 mi South 20.7 mph 27.6 mph N/A   Clear
11:35 AM 72.0 °F 39.4 °F 31% 29.96 in 10.0 mi South 21.9 mph - N/A   Clear
11:55 AM 72.3 °F 39.0 °F 30% 29.95 in 10.0 mi South 19.6 mph 25.3 mph N/A   Clear
12:15 PM 73.9 °F 39.6 °F 29% 29.95 in 10.0 mi South 20.7 mph 24.2 mph N/A   Clear
12:35 PM 74.8 °F 39.4 °F 28% 29.94 in 10.0 mi South 19.6 mph 28.8 mph N/A   Clear
12:55 PM 77.7 °F 39.9 °F 26% 29.94 in 10.0 mi South 23.0 mph 27.6 mph N/A   Clear
1:15 PM 78.4 °F 39.7 °F 25% 29.94 in 10.0 mi South 21.9 mph 28.8 mph N/A   Clear
1:35 PM 80.1 °F 39.4 °F 23% 29.93 in 10.0 mi South 21.9 mph 28.8 mph N/A   Clear
1:55 PM 80.4 °F 40.5 °F 24% 29.91 in 10.0 mi SSE 19.6 mph 28.8 mph N/A   Clear
2:15 PM 81.3 °F 40.1 °F 23% 29.91 in 10.0 mi South 21.9 mph 27.6 mph N/A   Clear
2:35 PM 81.5 °F 39.7 °F 23% 29.90 in 10.0 mi South 23.0 mph - N/A   Clear
2:55 PM 82.6 °F 39.0 °F 21% 29.90 in 10.0 mi South 21.9 mph 28.8 mph N/A   Clear
3:15 PM 82.8 °F 38.7 °F 21% 29.89 in 10.0 mi SSE 23.0 mph 29.9 mph N/A   Clear
3:55 PM 81.5 °F 39.9 °F 23% 29.89 in 10.0 mi SSE 24.2 mph 28.8 mph N/A   Clear
4:15 PM 81.0 °F 40.1 °F 23% 29.90 in 10.0 mi SSE 23.0 mph 27.6 mph N/A   Clear
4:35 PM 81.5 °F 40.3 °F 23% 29.89 in 10.0 mi South 24.2 mph 29.9 mph N/A   Clear
4:55 PM 81.1 °F 40.1 °F 23% 29.89 in 10.0 mi SSE 24.2 mph 33.4 mph N/A   Clear
5:15 PM 80.6 °F 40.3 °F 24% 29.89 in 10.0 mi SSE 20.7 mph 31.1 mph N/A   Clear
5:35 PM 79.2 °F 40.3 °F 25% 29.89 in 10.0 mi SSE 19.6 mph - N/A   Clear
5:55 PM 78.6 °F 40.1 °F 25% 29.89 in 10.0 mi SSE 25.3 mph - N/A   Clear
6:15 PM 77.4 °F 40.1 °F 26% 29.89 in 10.0 mi SSE 19.6 mph 28.8 mph N/A   Clear
6:55 PM 74.1 °F 39.6 °F 29% 29.89 in 10.0 mi SSE 19.6 mph 23.0 mph N/A   Clear
7:15 PM 72.0 °F 39.6 °F 31% 29.89 in 10.0 mi SSE 19.6 mph 25.3 mph N/A   Clear
7:35 PM 70.7 °F 40.3 °F 33% 29.90 in 10.0 mi SSE 19.6 mph - N/A   Clear
7:55 PM 69.4 °F 41.0 °F 36% 29.90 in 10.0 mi SSE 17.3 mph - N/A   Clear
8:15 PM 68.4 °F 41.4 °F 37% 29.91 in 10.0 mi SE 16.1 mph - N/A   Clear
8:35 PM 66.9 °F 42.1 °F 40% 29.91 in 10.0 mi SE 12.7 mph - N/A   Clear
8:55 PM 65.5 °F 42.8 °F 44% 29.91 in 10.0 mi SE 13.8 mph - N/A   Clear
9:15 PM 65.1 °F 43.0 °F 45% 29.91 in 10.0 mi SE 13.8 mph - N/A   Clear
9:35 PM 65.3 °F 43.5 °F 45% 29.92 in 10.0 mi SSE 15.0 mph - N/A   Clear
9:55 PM 66.4 °F 44.1 °F 44% 29.92 in 10.0 mi SSE 19.6 mph 26.5 mph N/A   Clear
10:15 PM 65.8 °F 44.6 °F 46% 29.93 in 10.0 mi SSE 19.6 mph - N/A   Clear
10:35 PM 65.1 °F 44.8 °F 48% 29.93 in 10.0 mi SSE 18.4 mph - N/A   Clear
10:55 PM 64.6 °F 45.1 °F 49% 29.94 in 10.0 mi SSE 17.3 mph - N/A   Clear
11:15 PM 64.4 °F 45.5 °F 50% 29.94 in 10.0 mi SSE 17.3 mph - N/A   Clear
11:55 PM 64.0 °F 45.7 °F 51% 29.94 in 10.0 mi SSE 16.1 mph 21.9 mph N/A   Clear